Back to catalog

SL-8 R/B

AlivePO
NORAD 20805·ROCKET BODY·🇷🇺 Russia

Launched Sep 14, 1990 from Plesetsk Cosmodrome

Loading…

Next Passes (next 24 hours)

TLE

FreshSource: Space-Track

Epoch: Sep 14, 2026, 11:10 UTC

1 20805U 90083B   26257.46527959  .00000152  00000-0  14005-3 0  9995
2 20805  82.9322  73.5364 0029754 322.8619  65.6369 13.76247979807442

Track SL-8 R/B in real time with AllMySat

Download on the App Store